Date,TemperatureHighF,TemperatureAvgF,TemperatureLowF,DewpointHighF,DewpointAvgF,DewpointLowF,HumidityHigh,HumidityAvg,HumidityLow,PressureMaxIn,PressureMinIn,WindSpeedMaxMPH,WindSpeedAvgMPH,GustSpeedMaxMPH,PrecipitationSumIn
2013-2-1,33.3,24.6,18.5,29.6,11.9,7.0,89,59,39,29.79,29.47,22,6,22,0.00
2013-2-2,44.8,31.9,20.5,33.0,23.8,12.3,87,72,53,29.67,29.40,13,3,13,0.02
2013-2-3,46.2,36.5,25.5,34.1,26.7,19.4,92,69,47,29.50,29.31,21,5,21,0.08
2013-2-4,57.7,41.3,24.8,27.1,21.0,14.5,86,52,23,29.46,29.23,19,5,19,0.00
2013-2-5,63.9,48.8,35.6,39.4,33.0,24.3,86,57,31,29.41,29.25,11,3,11,0.00
2013-2-6,63.5,45.8,29.3,42.5,27.2,11.7,96,57,18,29.54,29.39,10,2,10,0.00
2013-2-7,62.6,50.7,40.6,43.2,31.3,26.7,70,50,32,29.46,29.27,15,3,15,0.01
2013-2-8,48.4,44.1,41.0,47.6,38.0,30.9,97,80,67,29.51,29.26,17,8,17,0.13
2013-2-9,61.9,51.7,44.8,27.5,19.3,12.9,45,31,19,29.62,29.49,8,3,8,0.00
2013-2-10,60.1,53.7,48.6,51.0,34.0,19.0,90,53,28,29.51,29.19,27,10,27,0.60
2013-2-11,59.7,54.3,41.4,55.9,36.1,17.7,90,56,26,29.46,29.27,15,5,15,0.01
2013-2-12,58.5,50.3,35.4,39.9,25.7,17.4,85,44,25,29.48,29.25,9,3,9,0.00
2013-2-13,44.2,40.7,39.4,43.2,35.3,31.2,96,82,72,29.32,28.99,16,5,16,0.24
2013-2-14,61.5,46.3,32.7,35.8,31.1,25.0,91,60,29,29.36,29.28,18,4,18,0.00
2013-2-15,48.7,41.9,33.3,34.7,28.8,17.2,76,61,43,29.43,29.31,17,4,17,0.00
2013-2-16,36.9,30.4,26.2,20.4,17.4,9.9,67,59,38,29.42,29.36,18,6,18,0.00
2013-2-17,48.7,37.6,28.6,15.5,8.1,-2.8,56,35,15,29.59,29.50,14,3,14,0.00
2013-2-18,55.8,38.2,29.7,24.3,16.5,14.5,54,43,29,29.54,29.50,21,4,21,0.00
2013-2-19,50.9,47.6,42.4,39.3,21.9,2.1,85,43,17,29.43,29.27,26,13,26,0.08
2013-2-20,37.6,31.4,24.6,15.4,11.8,8.8,63,46,34,29.62,29.52,14,5,14,0.00
2013-2-21,58.5,41.2,23.4,40.3,16.8,-8.4,90,50,10,29.54,29.22,23,4,23,0.60
2013-2-22,58.3,52.4,47.1,45.3,43.5,40.0,86,72,62,29.37,29.21,17,7,19,0.01
2013-2-23,57.6,47.4,34.7,44.4,35.9,24.8,88,67,36,29.34,29.19,13,3,13,0.00
2013-2-24,57.4,41.1,27.9,29.5,20.9,11.4,80,50,20,29.43,28.94,14,3,14,0.00
2013-2-25,66.7,48.9,32.2,41.8,23.4,9.7,67,43,16,29.29,28.89,17,4,17,0.00
2013-2-26,55.0,50.0,41.0,45.8,41.5,32.0,83,73,65,29.04,28.77,27,11,27,0.17
2013-2-27,43.7,40.3,38.1,33.0,30.2,26.1,80,68,55,29.20,29.03,17,7,17,0.05
2013-2-28,38.8,36.6,32.9,28.7,25.2,21.5,82,64,54,29.35,29.15,15,6,15,0.01